This demonstration page uses our WeatherBlox Daily Observations layout. Learn more.

Left ArrowRight Arrow

40.92945, -100.16068

Hourly Observations for February 12, 2016

Temp ( °F °C ) Dew Point ( °F °C ) Humidity (%) Winds ( mph kmh ) Pressure ( in mb ) Visibility ( mi km ) Precip ( " mm )
12:15 am 00:15 Clear 32 0.1 29 -1.8 87 87 N 9 15 30.3 1026 10 16.0934 N/A
12:35 am 00:35 Clear 33 0.6 29 -1.9 84 84 NNW 8 13 30.3 1026 10 16.0934 N/A
12:55 am 00:55 Clear 32 -0.2 27 -2.7 83 83 N 6 9 30.33 1027 10 16.0934 N/A
1:15 am 01:15 Clear 31 -0.3 28 -2.2 87 87 NNE 10 17 30.3 1026 10 16.0934 N/A
1:35 am 01:35 Clear 32 -0.2 28 -2.4 85 85 NNE 8 13 30.3 1026 10 16.0934 N/A
1:55 am 01:55 Clear 30 -1 26 -3.1 86 86 NNE 6 9 30.36 1028 10 16.0934 N/A
2:15 am 02:15 Partly Cloudy 28 -2.1 26 -3.6 90 90 NNW 5 7 30.36 1028 10 16.0934 N/A
2:35 am 02:35 Mostly Cloudy 30 -1.2 27 -2.6 90 90 WNW 7 11 30.36 1028 10 16.0934 N/A
2:55 am 02:55 Cloudy 32 -0.2 28 -2 88 88 NW 7 11 30.36 1028 10 16.0934 N/A
3:15 am 03:15 Cloudy 32 -0.2 28 -2.1 87 87 WNW 8 13 30.36 1028 10 16.0934 N/A
3:35 am 03:35 Cloudy 32 -0.2 28 -2.1 87 87 NW 7 11 30.36 1028 10 16.0934 N/A
3:55 am 03:55 Cloudy 32 undefined 29 -1.7 88 88 WNW 8 13 30.36 1028 10 16.0934 N/A
4:15 am 04:15 Cloudy 32 0.1 29 -1.6 88 88 NW 6 9 30.36 1028 10 16.0934 N/A
4:35 am 04:35 Cloudy 32 0.2 29 -1.5 89 89 NW 6 9 30.36 1028 10 16.0934 N/A
4:55 am 04:55 Cloudy 32 0.1 29 -1.5 89 89 NW 6 9 30.42 1030 10 16.0934 N/A
5:15 am 05:15 Cloudy 32 0.1 29 -1.6 88 88 WNW 9 15 30.42 1030 10 16.0934 N/A
5:35 am 05:35 Cloudy 32 undefined 29 -1.9 87 87 NW 8 13 30.42 1030 10 16.0934 N/A
5:55 am 05:55 Cloudy 32 undefined 28 -2 87 87 NW 8 13 30.42 1030 10 16.0934 N/A
6:15 am 06:15 Cloudy 32 undefined 29 -1.7 88 88 N 7 11 30.45 1031 10 16.0934 N/A
6:35 am 06:35 Cloudy 32 0.2 29 -1.6 88 88 N 6 9 30.45 1031 10 16.0934 N/A
6:55 am 06:55 Cloudy 33 0.3 29 -1.5 88 88 N 8 13 30.45 1031 10 16.0934 N/A
7:15 am 07:15 Cloudy 33 0.4 29 -1.7 86 86 NNE 9 15 30.48 1032 10 16.0934 N/A
7:35 am 07:35 Cloudy 32 0.2 29 -1.7 87 87 NNE 8 13 30.48 1032 10 16.0934 N/A
7:55 am 07:55 Cloudy 32 0.1 29 -1.7 88 88 N 7 11 30.48 1032 10 16.0934 N/A
8:15 am 08:15 Cloudy 32 0.1 29 -1.6 88 88 NNE 7 11 30.48 1032 10 16.0934 N/A
8:35 am 08:35 Cloudy 32 0.2 29 -1.7 87 87 N 6 9 30.5 1033 10 16.0934 N/A
8:55 am 08:55 Cloudy 33 0.3 29 -1.6 87 87 NNE 5 7 30.5 1033 10 16.0934 N/A
9:15 am 09:15 Cloudy 33 0.5 29 -1.6 86 86 NNE 7 11 30.5 1033 10 16.0934 N/A
9:35 am 09:35 Cloudy 33 0.6 29 -1.5 86 86 NNE 7 11 30.5 1033 10 16.0934 N/A
9:55 am 09:55 Cloudy 34 0.9 29 -1.5 84 84 N 8 13 30.5 1033 10 16.0934 N/A
10:15 am 10:15 Cloudy 34 1 29 -1.7 82 82 N 9 15 30.5 1033 10 16.0934 N/A
10:35 am 10:35 Cloudy 34 1.2 29 -1.7 81 81 N 10 17 30.5 1033 10 16.0934 N/A
10:55 am 10:55 Cloudy 35 1.4 29 -1.7 80 80 N 12 19 30.5 1033 10 16.0934 N/A
11:15 am 11:15 Cloudy 34 1.3 28 -2 79 79 N 12 19 30.53 1034 10 16.0934 N/A
11:35 am 11:35 Cloudy 35 1.4 29 -1.9 79 79 N 9 15 30.53 1034 10 16.0934 N/A
11:55 am 11:55 Cloudy 35 1.5 28 -2 78 78 N 10 17 30.5 1033 10 16.0934 N/A
12:15 pm 12:15 Cloudy 35 1.5 28 -2.1 77 77 N 12 19 30.5 1033 10 16.0934 N/A
12:35 pm 12:35 Cloudy 34 1.3 28 -2.1 78 78 NE 7 11 30.53 1034 10 16.0934 N/A
12:55 pm 12:55 Cloudy 35 1.4 28 -2.1 78 78 NNE 9 15 30.5 1033 10 16.0934 N/A
1:15 pm 13:15 Cloudy 35 1.5 28 -2.3 76 76 ENE 10 17 30.48 1032 10 16.0934 N/A
1:35 pm 13:35 Cloudy 34 1 28 -2.3 79 79 NNE 12 19 30.53 1034 10 16.0934 N/A
1:55 pm 13:55 Cloudy 32 0.2 28 -2.4 83 83 NE 12 19 30.53 1034 10 16.0934 N/A
2:15 pm 14:15 Cloudy 32 undefined 28 -2.2 85 85 ENE 12 19 30.5 1033 10 16.0934 N/A
2:35 pm 14:35 Cloudy 32 undefined 28 -2.4 84 84 NE 9 15 30.5 1033 10 16.0934 N/A
2:55 pm 14:55 Cloudy 32 undefined 27 -2.6 83 83 ENE 12 19 30.5 1033 10 16.0934 N/A
3:15 pm 15:15 Cloudy 31 -0.5 27 -3 83 83 ENE 10 17 30.5 1033 10 16.0934 N/A
3:35 pm 15:35 Cloudy 30 -0.9 27 -3 86 86 E 12 19 30.53 1034 7 11.26538 N/A
3:55 pm 15:55 Cloudy with Mist and Fog 29 -1.8 26 -3.1 91 91 E 12 19 30.56 1035 3 4.82802 N/A
4:15 pm 16:15 Cloudy with Mist and Fog 29 -1.8 26 -3.1 91 91 ENE 9 15 30.56 1035 5 8.0467 N/A
4:35 pm 16:35 Cloudy 29 -1.8 26 -3.6 88 88 E 12 19 30.56 1035 7 11.26538 N/A
4:55 pm 16:55 Cloudy 29 -1.8 25 -3.7 87 87 ENE 10 17 30.56 1035 7 11.26538 N/A
5:15 pm 17:15 Cloudy 28 -2 24 -4.2 85 85 E 10 17 30.56 1035 10 16.0934 N/A
5:35 pm 17:35 Cloudy 28 -2.3 24 -4.5 85 85 E 10 17 30.56 1035 10 16.0934 N/A
5:55 pm 17:55 Cloudy 28 -2.5 24 -4.7 85 85 E 13 20 30.56 1035 10 16.0934 N/A
6:15 pm 18:15 Cloudy 27 -2.6 23 -5.2 83 83 E 13 20 30.56 1035 10 16.0934 N/A
6:35 pm 18:35 Cloudy 27 -2.7 22 -5.5 81 81 E 9 15 30.59 1036 10 16.0934 N/A
6:55 pm 18:55 Cloudy 27 -2.9 22 -5.7 81 81 E 9 15 30.59 1036 10 16.0934 N/A
7:15 pm 19:15 Cloudy 27 -3 21 -6.1 79 79 E 9 15 30.59 1036 10 16.0934 N/A
7:35 pm 19:35 Cloudy 26 -3.1 20 -6.5 78 78 E 9 15 30.59 1036 10 16.0934 N/A
7:55 pm 19:55 Cloudy 26 -3.3 20 -6.7 78 78 E 9 15 30.59 1036 10 16.0934 N/A
8:15 pm 20:15 Cloudy 26 -3.3 19 -7 76 76 E 10 17 30.59 1036 10 16.0934 N/A
8:35 pm 20:35 Cloudy 26 -3.3 19 -7.1 75 75 E 8 13 30.59 1036 10 16.0934 N/A
8:55 pm 20:55 Cloudy 26 -3.5 18 -7.6 74 74 ESE 9 15 30.59 1036 10 16.0934 N/A
9:15 pm 21:15 Cloudy 26 -3.6 19 -7.5 75 75 ESE 12 19 30.59 1036 10 16.0934 N/A
9:35 pm 21:35 Cloudy 25 -3.7 19 -7.5 75 75 ESE 13 20 30.59 1036 10 16.0934 N/A
9:55 pm 21:55 Cloudy 25 -4 18 -7.8 75 75 E 10 17 30.59 1036 10 16.0934 N/A
10:15 pm 22:15 Cloudy 25 -4.1 18 -7.9 75 75 E 12 19 30.59 1036 10 16.0934 N/A
10:35 pm 22:35 Cloudy 24 -4.3 18 -8 76 76 ESE 12 19 30.59 1036 10 16.0934 N/A
10:55 pm 22:55 Cloudy 24 -4.5 18 -8 77 77 SE 7 11 30.59 1036 10 16.0934 N/A
11:15 pm 23:15 Cloudy 24 -4.6 17 -8.5 74 74 ESE 10 17 30.65 1038 10 16.0934 N/A
11:35 pm 23:35 Cloudy 24 -4.7 17 -8.3 76 76 ESE 9 15 30.62 1037 10 16.0934 N/A
11:55 pm 23:55 Cloudy 23 -4.9 17 -8.3 77 77 SE 12 19 30.62 1037 10 16.0934 N/A

Powered by AerisWeather